[[{"header":{"parameterUnit":"m.s-1","parameterCategory":1,"la1":30.2991,"la2":30.254,"lo1":-89.0895,"lo2":-89.0444,"dy":0.0017,"dx":0.0017,"nx":28,"ny":28,"refTime":"2024-07-23T09:00:00:Z","depth":0,"parameterNumber":2,"parameterNumberName":"U-component_of_WINDS"},"data":[0,0,0,0,0,0,0,0,0,0,0,0,0,0,0,0,0,0,0,0,0,0,0,0,0,0,0,0,0,0,0,0,0,0,0,0,0,0,0,0,0,0,0,0,0,0,0,0,0,0,0,0,0,0,0,0,0,0,3.0716,3.0719,0,3.0966,3.0969,3.0972,3.1027,3.1025,3.1023,3.1021,3.1276,3.1284,3.1292,0,0,0,0,0,0,0,0,0,0,0,0,0,3.0287,3.0294,3.0716,3.0719,3.0722,3.0966,3.0969,3.0973,3.1027,3.1025,3.1023,3.1021,3.1273,3.1283,3.1293,0,0,0,0,0,0,0,0,0,0,0,0,0,3.0499,3.0297,3.0716,3.0779,3.0787,3.0965,3.0969,3.0974,3.1028,3.1025,3.1022,3.102,3.127,3.1282,3.1295,3.1427,0,0,3.1333,3.1339,0,0,0,0,0,0,0,0,3.0486,3.0514,3.0766,3.0775,3.0784,3.0963,3.0911,3.1125,3.1028,3.0936,3.1021,3.1018,3.1174,3.1194,3.1247,3.1439,3.145,3.1334,3.1342,3.1347,3.1351,0,0,0,0,0,0,0,3.0472,3.0504,3.0815,3.077,3.0781,3.0795,3.0822,3.0952,3.1067,3.0944,3.0949,3.0977,3.1178,3.1234,3.1253,3.1453,3.1334,3.1345,3.1353,3.1358,3.1769,3.1773,0,0,0,0,0,0,3.0446,3.0491,3.0807,3.0823,3.0626,3.0805,3.0835,3.0908,3.1066,3.1087,3.098,3.0979,3.1214,3.1238,3.1262,3.1429,3.1347,3.1359,3.1367,3.1766,3.177,3.1774,0,0,0,0,0,0,3.0437,3.0474,3.0797,3.0658,3.0701,3.0815,3.0897,3.0914,3.0971,3.1093,3.1113,3.1016,3.1213,3.1245,3.1386,3.1439,3.1365,3.1377,3.1762,3.1767,3.1772,3.1763,0,0,0,0,0,0,3.0424,3.047,3.0521,3.0659,3.0708,3.0916,3.09,3.0921,3.0993,3.0995,3.1132,3.1153,3.1213,3.1367,3.1399,3.1455,3.1386,3.1758,3.1765,3.177,3.1759,3.1767,3.1773,0,0,0,0,0,3.0408,3.0507,3.0523,3.0561,3.0774,3.0919,3.0947,3.1015,3.0997,3.1049,3.1128,3.1148,3.1428,3.1381,3.1417,3.1478,3.1755,3.1763,3.177,3.1755,3.1765,3.1773,0,0,0,0,0,0,3.0371,3.0526,3.0546,3.0692,3.0792,3.0928,3.0996,3.1023,3.113,3.1127,3.1207,3.1238,3.1375,3.1441,3.1386,3.1616,3.1591,3.1606,3.1567,3.1578,3.1585,3.1566,3.1397,0,0,0,0,0,3.038,3.0485,3.0615,3.0732,3.0781,3.088,3.0946,3.099,3.1097,3.1139,3.1228,3.1331,3.1443,3.1514,3.1623,3.1769,3.1801,3.1829,3.1836,3.1842,3.1853,3.1938,3.1952,3.1798,3.1798,3.1798,0,0,3.0399,3.0497,3.0558,3.0727,3.081,3.0917,3.0915,3.1028,3.1109,3.1156,3.1296,3.1365,3.1485,3.163,3.1699,3.169,3.1903,3.1851,3.1855,3.1864,3.1947,3.1961,3.1974,3.1803,3.1803,3.1802,0,0,3.0488,3.0573,3.068,3.0764,3.089,3.0956,3.0982,3.1115,3.1163,3.1305,3.1343,3.1441,3.163,3.1715,3.1783,3.1909,3.1932,3.1942,3.198,3.2061,3.2073,3.2084,3.213,3.2145,3.1954,3.1954,3.1954,0,3.0496,3.0659,3.0732,3.0845,3.0918,3.0968,3.1078,3.1156,3.131,3.136,3.1348,3.159,3.1674,3.184,3.1871,3.1924,3.1957,3.1926,3.2066,3.2078,3.2089,3.2134,3.215,3.1954,3.1954,3.1954,3.1954,0,3.0663,3.0776,3.0848,3.0997,3.108,3.119,3.128,3.1355,3.1393,3.146,3.1605,3.1709,3.1841,3.1884,3.1921,3.2057,3.2048,3.205,3.2026,3.2103,3.2146,3.2164,3.1955,3.1955,3.1955,3.1954,0,0,3.0733,3.0924,3.0949,3.1019,3.1163,3.1252,3.1366,3.1496,3.1559,3.1665,3.1763,3.1924,3.1928,3.2005,3.2054,3.2125,3.222,3.2119,3.2123,3.2134,3.2377,3.2373,3.2392,3.2237,3.224,3.2243,3.2367,0,3.084,3.1045,3.1115,3.1285,3.1391,3.1442,3.1541,3.1641,3.1708,3.1808,3.1882,3.1995,3.1992,3.2039,3.2112,3.2192,3.2269,3.2185,3.2329,3.2333,3.2296,3.2414,3.2411,3.2522,3.2384,3.2387,3.2389,0,3.0992,3.1102,3.1282,3.1415,3.1463,3.1551,3.1677,3.1772,3.1887,3.1931,3.2019,3.2063,3.2185,3.2156,3.2326,3.2267,3.233,3.2379,3.2385,3.24,3.2364,3.2432,3.256,3.2576,3.2416,3.2414,3.2412,0,3.1025,3.1218,3.1352,3.141,3.1569,3.163,3.1699,3.1811,3.1886,3.1997,3.2046,3.217,3.2237,3.2332,3.2408,3.238,3.2572,3.2548,3.2612,3.261,3.2649,3.2645,3.2787,3.2691,3.2691,3.269,3.269,0,3.1137,3.1245,3.1369,3.1451,3.1575,3.1656,3.1776,3.1848,3.1949,3.2046,3.2098,3.2188,3.2284,3.2388,3.2449,3.2581,3.2611,3.265,3.2665,3.2645,3.264,3.2687,3.2681,3.2695,3.2694,3.2693,3.2692,0,3.1194,3.1281,3.143,3.157,3.1608,3.1692,3.1812,3.1894,3.1965,3.2088,3.2121,3.2232,3.2356,3.2443,3.2603,3.2644,3.2787,3.2801,3.2748,3.2755,3.2814,3.2807,3.299,3.3019,3.2903,3.2904,3.2905,0,3.1259,3.1344,3.1493,3.1563,3.1632,3.1743,3.182,3.1904,3.1983,3.2122,3.2188,3.2316,3.2423,3.2621,3.2715,3.2839,3.2856,3.2912,3.2874,3.2853,3.2857,3.285,3.286,3.2917,3.2918,3.2918,3.2919,0,3.1366,3.1406,3.1515,3.164,3.1731,3.1833,3.1936,3.199,3.2093,3.2178,3.2307,3.2391,3.2556,3.2683,3.2816,3.2888,3.2921,3.2931,3.2952,3.2932,3.2897,3.2917,3.2763,3.2925,3.2925,3.2924,3.2924,3.2923,3.1429,3.1508,3.1626,3.1746,3.1833,3.1929,3.2013,3.2096,3.2204,3.2345,3.2389,3.2523,3.2639,3.2821,3.2896,3.3002,3.2998,3.3028,3.3036,3.3042,3.3042,3.2882,3.3027,3.3027,3.3027,3.3027,3.3027,0,3.1538,3.1617,3.1728,3.1871,3.1966,3.1991,3.2107,3.2185,3.2303,3.2408,3.2514,3.2663,3.2788,3.2893,3.3023,3.3088,3.3107,3.3119,3.3114,3.3131,3.3038,3.3007,3.3102,3.3102,3.3102,3.3102,3.3102,3.3102,3.1606,3.1741,3.1795,3.1974,3.2053,3.2185,3.2249,3.2338,3.2423,3.2588,3.2692,3.2761,3.2867,3.3005,3.3121,3.315,3.3194,3.3203,3.3235,3.3146,3.3137,3.3129,3.31,3.3213,3.3213,3.3319,3.332,3.332]},{"header":{"parameterUnit":"m.s-1","parameterCategory":1,"la1":30.2991,"la2":30.254,"lo1":-89.0895,"lo2":-89.0444,"dy":0.0017,"dx":0.0017,"nx":28,"ny":28,"refTime":"2024-07-23T09:00:00:Z","depth":0,"parameterNumber":3,"parameterNumberName":"V-component_of_WINDS"},"data":[0,0,0,0,0,0,0,0,0,0,0,0,0,0,0,0,0,0,0,0,0,0,0,0,0,0,0,0,0,0,0,0,0,0,0,0,0,0,0,0,0,0,0,0,0,0,0,0,0,0,0,0,0,0,0,0,0,0,-1.9145,-1.9141,0,-1.8836,-1.8833,-1.8829,-1.8636,-1.8635,-1.8634,-1.8633,-1.8297,-1.8289,-1.8281,0,0,0,0,0,0,0,0,0,0,0,0,0,-1.9551,-1.9544,-1.9145,-1.9141,-1.9137,-1.8837,-1.8833,-1.8828,-1.8636,-1.8635,-1.8634,-1.8633,-1.83,-1.829,-1.828,0,0,0,0,0,0,0,0,0,0,0,0,0,-1.9321,-1.9542,-1.9146,-1.9006,-1.899,-1.8838,-1.8833,-1.8827,-1.8637,-1.8635,-1.8634,-1.8632,-1.8303,-1.8291,-1.8279,-1.8235,0,0,-1.8242,-1.8237,0,0,0,0,0,0,0,0,-1.9335,-1.9307,-1.903,-1.9015,-1.8997,-1.8774,-1.8852,-1.8628,-1.8637,-1.877,-1.8633,-1.8631,-1.8455,-1.8431,-1.8375,-1.822,-1.8205,-1.8241,-1.8234,-1.8229,-1.8226,0,0,0,0,0,0,0,-1.9351,-1.9319,-1.9022,-1.9026,-1.9006,-1.8953,-1.8919,-1.8809,-1.8624,-1.8758,-1.8744,-1.8711,-1.8446,-1.8388,-1.8366,-1.82,-1.8242,-1.8231,-1.8224,-1.8219,-1.7995,-1.7996,0,0,0,0,0,0,-1.9391,-1.9333,-1.9032,-1.9013,-1.9166,-1.8947,-1.8909,-1.8847,-1.8625,-1.859,-1.8713,-1.8703,-1.8409,-1.838,-1.8354,-1.8288,-1.8229,-1.8218,-1.8211,-1.7994,-1.7995,-1.7997,0,0,0,0,0,0,-1.9401,-1.9366,-1.9044,-1.9169,-1.9124,-1.8942,-1.8874,-1.8841,-1.8783,-1.8591,-1.8555,-1.8688,-1.8407,-1.837,-1.8268,-1.8274,-1.8212,-1.8201,-1.7992,-1.7994,-1.7996,-1.8159,0,0,0,0,0,0,-1.9413,-1.9371,-1.9356,-1.9171,-1.9119,-1.8969,-1.8874,-1.8836,-1.8765,-1.875,-1.8558,-1.8525,-1.8403,-1.8287,-1.8256,-1.8256,-1.8192,-1.7991,-1.7993,-1.7995,-1.8152,-1.8166,-1.8178,0,0,0,0,0,-1.9429,-1.9409,-1.9356,-1.9321,-1.9097,-1.897,-1.8939,-1.8805,-1.8767,-1.8747,-1.8625,-1.8531,-1.828,-1.8279,-1.8242,-1.8239,-1.799,-1.7993,-1.7995,-1.8146,-1.8163,-1.8178,0,0,0,0,0,0,-1.959,-1.9381,-1.9321,-1.9242,-1.9127,-1.8938,-1.8909,-1.8827,-1.8714,-1.8704,-1.8536,-1.8494,-1.8409,-1.8313,-1.8315,-1.8186,-1.8124,-1.812,-1.8251,-1.8266,-1.8279,-1.8301,-1.8182,0,0,0,0,0,-1.9619,-1.9539,-1.9358,-1.9306,-1.9252,-1.9092,-1.9031,-1.894,-1.881,-1.8757,-1.8627,-1.85,-1.8392,-1.8324,-1.8214,-1.8139,-1.8093,-1.8119,-1.8132,-1.8144,-1.814,-1.8094,-1.8103,-1.8006,-1.8006,-1.8006,0,0,-1.9671,-1.9548,-1.9506,-1.9335,-1.9235,-1.9152,-1.9051,-1.8966,-1.8901,-1.8742,-1.8639,-1.8541,-1.8387,-1.83,-1.8253,-1.8217,-1.8159,-1.8147,-1.8158,-1.8148,-1.8098,-1.8108,-1.8116,-1.8008,-1.8008,-1.8007,0,0,-1.9727,-1.9627,-1.9573,-1.9478,-1.9331,-1.9226,-1.9214,-1.9039,-1.897,-1.8867,-1.8746,-1.8664,-1.8483,-1.8379,-1.8303,-1.8329,-1.8237,-1.8297,-1.8363,-1.832,-1.8328,-1.8334,-1.8341,-1.8346,-1.8295,-1.8296,-1.8296,0,-1.9809,-1.9685,-1.9554,-1.9479,-1.9406,-1.9269,-1.9211,-1.9122,-1.8944,-1.8894,-1.8859,-1.8632,-1.8518,-1.8405,-1.8413,-1.8356,-1.8334,-1.8315,-1.8339,-1.8343,-1.8346,-1.8352,-1.8356,-1.8304,-1.8303,-1.8302,-1.8301,0,-1.9794,-1.9711,-1.9684,-1.9526,-1.945,-1.9384,-1.9238,-1.9177,-1.9094,-1.8992,-1.8888,-1.875,-1.8611,-1.8578,-1.8491,-1.8453,-1.8435,-1.8372,-1.8305,-1.8367,-1.8369,-1.837,-1.8316,-1.8313,-1.831,-1.8308,0,0,-1.9934,-1.9712,-1.9704,-1.9632,-1.9463,-1.9392,-1.932,-1.9193,-1.9143,-1.9027,-1.8959,-1.8813,-1.8756,-1.8669,-1.8571,-1.8534,-1.8563,-1.8474,-1.8468,-1.8494,-1.8511,-1.8559,-1.8563,-1.8505,-1.8505,-1.8504,-1.8524,0,-1.9962,-1.9832,-1.9715,-1.9625,-1.9545,-1.9418,-1.9354,-1.9242,-1.9146,-1.906,-1.8951,-1.8851,-1.8783,-1.873,-1.8689,-1.8569,-1.8564,-1.8566,-1.8435,-1.8432,-1.8475,-1.8564,-1.8612,-1.8637,-1.8524,-1.8524,-1.8524,0,-1.9975,-1.9875,-1.978,-1.9625,-1.9586,-1.9532,-1.9408,-1.933,-1.9199,-1.9132,-1.9042,-1.8941,-1.8855,-1.8803,-1.868,-1.8685,-1.8625,-1.8558,-1.8556,-1.8534,-1.8479,-1.8543,-1.8641,-1.8645,-1.8524,-1.8524,-1.8524,0,-2.0086,-1.9925,-1.9849,-1.9791,-1.9608,-1.9573,-1.9494,-1.9363,-1.9296,-1.9186,-1.914,-1.9019,-1.8951,-1.8859,-1.8727,-1.8702,-1.8618,-1.8554,-1.8555,-1.8559,-1.8538,-1.8541,-1.8627,-1.8507,-1.8507,-1.8507,-1.8507,0,-2.0127,-2.0073,-1.9897,-1.9849,-1.9785,-1.9651,-1.9589,-1.9498,-1.9384,-1.9313,-1.9194,-1.9128,-1.8961,-1.8875,-1.8771,-1.8685,-1.8655,-1.8595,-1.8567,-1.8604,-1.8612,-1.8558,-1.8552,-1.8507,-1.8507,-1.8507,-1.8507,0,-2.0236,-2.0117,-2.0024,-1.9863,-1.9821,-1.9781,-1.9639,-1.9586,-1.9489,-1.9401,-1.9372,-1.9214,-1.9107,-1.897,-1.8816,-1.8747,-1.8672,-1.863,-1.8718,-1.8701,-1.871,-1.871,-1.8761,-1.876,-1.8646,-1.8647,-1.8648,0,-2.0268,-2.0225,-2.0063,-2.0012,-1.9939,-1.9856,-1.979,-1.9656,-1.9591,-1.9444,-1.9408,-1.9295,-1.9196,-1.903,-1.8898,-1.8781,-1.8734,-1.8761,-1.8715,-1.8755,-1.8732,-1.8736,-1.873,-1.877,-1.8772,-1.8774,-1.8775,0,-2.0337,-2.0283,-2.0196,-2.009,-2.0017,-1.9924,-1.9825,-1.9788,-1.9634,-1.9566,-1.946,-1.9385,-1.9235,-1.9121,-1.899,-1.8901,-1.8811,-1.8793,-1.8786,-1.8821,-1.8873,-1.8844,-1.8746,-1.879,-1.8789,-1.8787,-1.8787,-1.8786,-2.0406,-2.0364,-2.0246,-2.0153,-2.0068,-1.9981,-1.9925,-1.9825,-1.9736,-1.9609,-1.9535,-1.9432,-1.9304,-1.9119,-1.9036,-1.895,-1.8915,-1.8906,-1.8903,-1.8902,-1.8914,-1.8892,-1.8925,-1.8924,-1.8924,-1.8923,-1.8923,0,-2.0468,-2.0388,-2.0306,-2.0177,-2.0105,-2.0039,-1.9927,-1.9869,-1.9783,-1.9676,-1.9585,-1.9464,-1.9356,-1.9221,-1.9103,-1.906,-1.9016,-1.9033,-1.9032,-1.9014,-1.8952,-1.8969,-1.9071,-1.9071,-1.9071,-1.9071,-1.9071,-1.9071,-2.0491,-2.0417,-2.035,-2.0232,-2.0149,-2.0054,-1.9997,-1.9915,-1.983,-1.9704,-1.9617,-1.9533,-1.9414,-1.9288,-1.9185,-1.9147,-1.9108,-1.9137,-1.9087,-1.9031,-1.9017,-1.9005,-1.902,-1.9131,-1.9131,-1.9155,-1.9155,-1.9155]}]]